Location: Flensburg
(54.6357°N, 9.5142°E)
Time: 08:58:25
(UTC+01:00)

Amateur Radio Satellites - All Passes

Search period start: 25 November 2017 08:28
Search period end: 26 November 2017 08:28
Location: Flensburg, 54.6357°N, 9.5142°E

Satellite Date Start Highest point End Downlink Frequencies (MHz)
Time Altitude Azimuth
AO-73 25 Nov 08:29:23 08:33:23 45° 99° (E) 08:37:24 145.935
Oscar 11 25 Nov 08:40:52 08:45:00 42° 97° (E) 08:49:08 .
XW-2C 25 Nov 08:43:25 08:43:54 10° 308° (NW) 08:44:24 145.795 - 145.815
PRISM 25 Nov 08:43:44 08:47:12 26° 60° (ENE) 08:50:42 437.425
CUTE 1.7 + AOD 2 25 Nov 08:44:44 08:48:30 30° 297° (WNW) 08:52:15 437.475
CUBEBUG 2 25 Nov 08:49:17 08:53:13 40° 294° (WNW) 08:57:05 437.445
DELFI C3 25 Nov 08:51:16 08:53:26 14° 87° (E) 08:55:37 145.870
AAUSAT CUBESAT 2 25 Nov 08:59:54 09:04:04 59° 289° (WNW) 09:08:11 437.432
UNISAT 6 25 Nov 09:03:00 09:07:30 85° 77° (ENE) 09:11:56 437.425
Max Valier Satellite 25 Nov 09:03:28 09:05:01 12° 87° (E) 09:06:33 145.860
TIGRISAT 25 Nov 09:06:08 09:10:38 84° 74° (ENE) 09:15:03 435.000
SEEDS 25 Nov 09:06:47 09:10:27 29° 297° (WNW) 09:14:08 437.485
HO-68 25 Nov 09:09:08 09:15:56 47° 302° (WNW) 09:22:42 435.675
ZACube-1 25 Nov 09:17:14 09:21:20 60° 289° (WNW) 09:25:27 437.345
YUBILEINY 25 Nov 09:17:30 09:22:31 16° 326° (NW) 09:27:34 435.215
EO-79 25 Nov 09:35:24 09:37:43 15° 53° (NE) 09:40:01 145.935-145.965
BEESAT 2 25 Nov 09:35:53 09:39:47 42° 32° (NNE) 09:43:38 435.950
NANOSAT C BR1 25 Nov 09:35:58 09:38:02 13° 52° (NE) 09:40:05 145.865
UWE-3 25 Nov 09:37:18 09:40:45 26° 299° (WNW) 09:44:11 435.000/436.395/437.385
PCSat 25 Nov 09:37:49 09:41:54 22° 250° (WSW) 09:45:58 145.827
CUTE-I 25 Nov 09:41:01 09:43:05 12° 319° (NW) 09:45:09 437.470
AO-85 25 Nov 09:41:24 09:45:25 33° 25° (NNE) 09:49:43 145.980
AO-7 25 Nov 09:41:47 09:45:36 14° 0° (N) 09:49:26 .
POLYITAN 1 25 Nov 09:51:10 09:54:07 19° 56° (ENE) 09:57:04 437.675
BEESAT 3 25 Nov 09:51:30 09:55:29 74° 227° (SW) 09:59:24 437.485
FO-29 25 Nov 09:54:02 09:59:22 22° 279° (W) 10:05:02 435.910
XW-2A 25 Nov 10:00:33 10:02:03 13° 303° (WNW) 10:03:32 145.665 - 145.685
AO-73 25 Nov 10:05:59 10:09:28 27° 298° (WNW) 10:12:58 145.935
AIST 2D 25 Nov 10:06:40 10:09:59 45° 70° (ENE) 10:13:21 435.315
QB50P2 25 Nov 10:13:55 10:17:36 30° 62° (ENE) 10:21:17 145.880/145.840
Oscar 11 25 Nov 10:17:15 10:21:03 30° 298° (WNW) 10:24:50 .
PRISM 25 Nov 10:18:16 10:22:16 47° 260° (W) 10:26:20 437.425
EO-88 25 Nov 10:23:42 10:27:19 54° 100° (E) 10:30:55 145.990 - 145.960
DELFI C3 25 Nov 10:24:42 10:28:45 80° 284° (WNW) 10:32:44 145.870
Oscar 19 25 Nov 10:26:28 10:28:01 11° 42° (NE) 10:29:34 437.125/150
ESTCUBE 1 25 Nov 10:34:03 10:36:03 13° 84° (E) 10:38:03 437.505/2401.250
LO-87 25 Nov 10:35:15 10:36:55 13° 88° (E) 10:38:34 145.935 - 145.965
Max Valier Satellite 25 Nov 10:35:40 10:39:22 81° 284° (WNW) 10:43:03 145.860
AAUSAT CUBESAT 2 25 Nov 10:37:19 10:38:41 11° 310° (NW) 10:40:02 437.432
UNISAT 6 25 Nov 10:42:08 10:44:49 15° 273° (W) 10:47:28 437.425
TIGRISAT 25 Nov 10:45:13 10:47:55 16° 273° (W) 10:50:36 435.000
ZACube-1 25 Nov 10:55:32 10:56:49 11° 310° (NW) 10:58:07 437.345
DUCHIFAT 1 25 Nov 10:55:50 10:59:53 49° 68° (ENE) 11:03:57 145.980
HO-68 25 Nov 10:57:46 11:02:06 17° 326° (NW) 11:06:25 435.675
EO-79 25 Nov 11:08:35 11:12:49 79° 73° (ENE) 11:17:04 145.935-145.965
NANOSAT C BR1 25 Nov 11:08:50 11:13:01 72° 73° (ENE) 11:17:15 145.865
BEESAT 2 25 Nov 11:13:42 11:17:34 43° 234° (SW) 11:21:22 435.950
AO-85 25 Nov 11:21:42 11:26:15 81° 226° (SW) 11:31:09 145.980
Gurwin Techsat 1B 25 Nov 11:23:54 11:27:49 21° 52° (NE) 11:31:44 435.225
AO-91 25 Nov 11:24:06 11:28:18 24° 57° (ENE) 11:32:23 145.960
POLYITAN 1 25 Nov 11:25:13 11:29:27 75° 257° (WSW) 11:33:41 437.675
AO-7 25 Nov 11:29:48 11:35:24 21° 28° (NNE) 11:41:02 .
BEESAT 3 25 Nov 11:30:30 11:32:20 13° 247° (WSW) 11:34:09 437.485
BUGSAT 1 25 Nov 11:31:08 11:34:53 33° 64° (ENE) 11:38:36 437.445
AIST 2D 25 Nov 11:40:53 11:43:24 19° 269° (W) 11:45:56 435.315
QB50P2 25 Nov 11:49:15 11:53:16 41° 261° (W) 11:57:19 145.880/145.840
EO-88 25 Nov 11:58:01 12:00:39 19° 300° (WNW) 12:03:16 145.990 - 145.960
DELFI C3 25 Nov 12:00:49 12:02:50 14° 306° (NW) 12:04:51 145.870
Oscar 19 25 Nov 12:01:19 12:06:09 43° 63° (ENE) 12:11:00 437.125/150
O/OREOS (USA 219) 25 Nov 12:04:12 12:07:09 17° 101° (E) 12:10:08 437.305
LO-87 25 Nov 12:07:14 12:10:48 72° 287° (WNW) 12:14:19 145.935 - 145.965
ESTCUBE 1 25 Nov 12:09:05 12:13:39 77° 103° (ESE) 12:18:12 437.505/2401.250
VELOX 1 25 Nov 12:10:31 12:13:37 18° 89° (E) 12:16:42 145.980
Max Valier Satellite 25 Nov 12:11:05 12:12:34 12° 305° (NW) 12:14:04 145.860
M-CUBED/EXP-1 PRIME 25 Nov 12:12:26 12:15:06 18° 46° (NE) 12:17:53 437.505
ITAMSAT 1 25 Nov 12:29:05 12:30:16 11° 40° (NE) 12:31:29 435.822/435.867
DUCHIFAT 1 25 Nov 12:32:21 12:35:47 24° 267° (W) 12:39:14 145.980
SPROUT 25 Nov 12:32:47 12:36:49 39° 98° (E) 12:40:47 437.525
NANOSAT C BR1 25 Nov 12:46:27 12:49:14 17° 271° (W) 12:52:00 145.865
EO-79 25 Nov 12:46:34 12:49:07 16° 272° (W) 12:51:42 145.935-145.965
AO-91 25 Nov 12:58:49 13:04:15 81° 256° (WSW) 13:09:32 145.960
Gurwin Techsat 1B 25 Nov 13:01:49 13:07:08 88° 73° (ENE) 13:12:31 435.225
AO-85 25 Nov 13:03:00 13:06:09 18° 245° (WSW) 13:09:25 145.980
POLYITAN 1 25 Nov 13:04:44 13:05:59 11° 276° (W) 13:07:14 437.675
BUGSAT 1 25 Nov 13:06:24 13:10:13 35° 263° (W) 13:14:02 437.445
UKube-1 25 Nov 13:15:02 13:17:01 13° 86° (E) 13:19:00 .
AO-7 25 Nov 13:18:34 13:26:22 48° 53° (NE) 13:34:13 .
YUBILEINY 25 Nov 13:21:27 13:26:48 17° 36° (NE) 13:32:07 435.215
Oscar 19 25 Nov 13:40:50 13:45:34 37° 264° (W) 13:50:21 437.125/150
O/OREOS (USA 219) 25 Nov 13:41:21 13:45:58 85° 299° (WNW) 13:50:37 437.305
LO-87 25 Nov 13:42:49 13:43:32 10° 307° (NW) 13:44:15 145.935 - 145.965
M-CUBED/EXP-1 PRIME 25 Nov 13:45:05 13:48:54 88° 252° (WSW) 13:53:04 437.505
VELOX 1 25 Nov 13:46:06 13:50:35 73° 289° (WNW) 13:55:00 145.980
ESTCUBE 1 25 Nov 13:46:40 13:49:59 20° 304° (NW) 13:53:17 437.505/2401.250
ITAMSAT 1 25 Nov 14:03:37 14:08:27 39° 61° (ENE) 14:13:19 435.822/435.867
50 SAT 25 Nov 14:07:39 14:10:52 60° 102° (ESE) 14:14:02 437.505
SPROUT 25 Nov 14:08:52 14:12:37 31° 297° (WNW) 14:16:22 437.525
NO-84 25 Nov 14:13:58 14:16:43 20° 137° (SE) 14:19:37 435.350 FM
DX 1 25 Nov 14:17:02 14:21:25 64° 103° (ESE) 14:25:46 434.975-435.025
HO-68 25 Nov 14:29:55 14:31:39 11° 19° (NNE) 14:33:22 435.675
DOVE 4 25 Nov 14:30:13 14:33:39 18° 51° (NE) 14:37:05 437.250
ITUPSAT 1 25 Nov 14:30:23 14:32:29 13° 84° (E) 14:34:36 437.325
AO-91 25 Nov 14:37:58 14:41:24 17° 275° (W) 14:44:48 145.960
Gurwin Techsat 1B 25 Nov 14:44:09 14:47:49 19° 273° (W) 14:51:32 435.225
UKube-1 25 Nov 14:49:23 14:53:45 83° 107° (ESE) 14:58:05 .
AO-7 25 Nov 15:10:52 15:19:03 60° 256° (WSW) 15:27:18 .
YUBILEINY 25 Nov 15:18:00 15:26:30 47° 65° (ENE) 15:34:56 435.215
M-CUBED/EXP-1 PRIME 25 Nov 15:22:20 15:24:02 12° 269° (W) 15:25:48 437.505
O/OREOS (USA 219) 25 Nov 15:22:31 15:26:05 21° 323° (NW) 15:29:38 437.305
VELOX 1 25 Nov 15:23:50 15:26:18 15° 309° (NW) 15:28:45 145.980
MOZHAYETS 4 25 Nov 15:35:03 15:39:34 55° 101° (E) 15:44:04
50 SAT 25 Nov 15:40:41 15:42:33 14° 302° (WNW) 15:44:23 437.505
XW-2D 25 Nov 15:42:12 15:43:24 11° 53° (NE) 15:44:37 145.860 - 145.880
ITAMSAT 1 25 Nov 15:42:56 15:47:55 43° 262° (W) 15:52:56 435.822/435.867
NO-84 25 Nov 15:49:42 15:53:28 63° 157° (SSE) 15:57:31 435.350 FM
BEESAT 25 Nov 15:53:31 15:58:14 59° 102° (ESE) 16:02:56 436.000
DX 1 25 Nov 15:53:50 15:57:15 23° 303° (WNW) 16:00:39 434.975-435.025
XW-2B 25 Nov 15:56:13 15:58:16 14° 56° (NE) 16:00:20 145.730 - 145.750
CUBESAT XI-V 25 Nov 15:59:00 16:03:05 29° 93° (E) 16:07:10 437.345
DOVE 4 25 Nov 16:05:17 16:10:28 72° 72° (ENE) 16:15:48 437.250
ITUPSAT 1 25 Nov 16:06:24 16:11:11 74° 105° (ESE) 16:15:57 437.325
CUTE-I 25 Nov 16:09:14 16:13:38 26° 55° (NE) 16:18:03 437.470
HO-68 25 Nov 16:11:25 16:17:01 25° 44° (NE) 16:22:38 435.675
XW-2C 25 Nov 16:20:58 16:23:56 23° 62° (ENE) 16:26:56 145.795 - 145.815
UKube-1 25 Nov 16:26:18 16:29:15 18° 306° (NW) 16:32:12 .
XW-2F 25 Nov 16:27:08 16:30:10 24° 62° (ENE) 16:33:14 145.980 - 146.000
LilacSat-2 25 Nov 16:28:33 16:31:47 28° 64° (ENE) 16:35:04 437.200
CUTE 1.7 + AOD 2 25 Nov 16:34:47 16:36:41 13° 52° (NE) 16:38:35 437.475
CUBEBUG 2 25 Nov 16:44:13 16:45:30 11° 50° (NE) 16:46:47 437.445
KAITUO 1B 25 Nov 16:46:32 16:49:46 29° 64° (ENE) 16:53:02 145.475/437.950
KKS-1 25 Nov 16:53:35 16:57:09 23° 92° (E) 17:00:41 437.445
SEEDS 25 Nov 16:55:55 16:57:53 13° 52° (NE) 16:59:50 437.485
STARS 25 Nov 17:05:15 17:07:31 14° 86° (E) 17:09:44 437.465
AO-7 25 Nov 17:08:58 17:13:43 16° 279° (W) 17:18:29 .
MOZHAYETS 4 25 Nov 17:12:40 17:16:28 26° 301° (WNW) 17:20:16
XW-2D 25 Nov 17:13:09 17:16:53 71° 73° (ENE) 17:20:39 145.860 - 145.880
YUBILEINY 25 Nov 17:15:02 17:23:38 58° 269° (W) 17:32:11 435.215
NUDT-PHONESAT 25 Nov 17:22:23 17:25:59 61° 72° (ENE) 17:29:38 437.300
NO-84 25 Nov 17:26:50 17:30:49 84° 1° (N) 17:35:01 435.350 FM
RS-15 25 Nov 17:27:12 17:37:44 35° 107° (ESE) 17:48:07 29.354- 29.394
XW-2B 25 Nov 17:28:09 17:31:54 85° 255° (WSW) 17:35:42 145.730 - 145.750
UWE-3 25 Nov 17:29:32 17:32:06 16° 55° (NE) 17:34:39 435.000/436.395/437.385
BEESAT 25 Nov 17:31:46 17:35:44 27° 302° (WNW) 17:39:40 436.000
XW-2A 25 Nov 17:34:01 17:34:47 11° 55° (NE) 17:35:33 145.665 - 145.685
CUBESAT XI-V 25 Nov 17:36:09 17:40:40 49° 293° (WNW) 17:45:13 437.345
DOVE 4 25 Nov 17:44:31 17:48:40 23° 272° (W) 17:52:53 437.250
ITUPSAT 1 25 Nov 17:44:55 17:48:35 22° 305° (NW) 17:52:14 437.325
CUTE-I 25 Nov 17:47:53 17:53:16 73° 256° (WSW) 17:58:41 437.470
XW-2C 25 Nov 17:54:19 17:57:54 45° 261° (W) 18:01:34 145.795 - 145.815
HO-68 25 Nov 17:56:37 18:03:49 76° 67° (ENE) 18:11:02 435.675
AO-73 25 Nov 17:57:27 17:59:44 14° 54° (NE) 18:02:01 145.935
XW-2F 25 Nov 18:00:34 18:04:07 41° 262° (W) 18:07:42 145.980 - 146.000
LilacSat-2 25 Nov 18:02:30 18:05:59 35° 263° (W) 18:09:31 437.200
CUTE 1.7 + AOD 2 25 Nov 18:07:34 18:11:45 68° 72° (ENE) 18:15:59 437.475
Oscar 11 25 Nov 18:08:33 18:10:48 14° 52° (NE) 18:13:03 .
CUBEBUG 2 25 Nov 18:16:54 18:21:18 55° 69° (ENE) 18:25:32 437.445
KAITUO 1B 25 Nov 18:20:21 18:23:42 32° 264° (W) 18:27:07 145.475/437.950
AAUSAT CUBESAT 2 25 Nov 18:21:19 18:25:00 32° 64° (ENE) 18:28:43 437.432
SEEDS 25 Nov 18:28:40 18:32:49 70° 72° (ENE) 18:37:03 437.485
KKS-1 25 Nov 18:29:39 18:34:03 57° 292° (WNW) 18:38:26 437.445
STARS 25 Nov 18:40:06 18:44:33 86° 107° (ESE) 18:48:55 437.465
ZACube-1 25 Nov 18:43:35 18:47:26 35° 65° (ENE) 18:51:15 437.345
STRAND 1 25 Nov 18:48:00 18:51:39 19° 88° (E) 18:55:17 437.568
O/OREOS (USA 219) 25 Nov 18:48:09 18:48:59 10° 15° (NNE) 18:49:49 437.305
XW-2D 25 Nov 18:49:27 18:51:32 14° 272° (W) 18:53:37 145.860 - 145.880
NUDT-PHONESAT 25 Nov 18:57:58 19:00:13 16° 271° (W) 19:02:30 437.300
XW-2A 25 Nov 19:03:35 19:06:53 83° 78° (ENE) 19:10:15 145.665 - 145.685
UWE-3 25 Nov 19:03:39 19:08:00 87° 76° (ENE) 19:12:17 435.000/436.395/437.385
NO-84 25 Nov 19:04:08 19:08:12 69° 200° (SSW) 19:12:26 435.350 FM
XW-2B 25 Nov 19:05:50 19:06:44 11° 275° (W) 19:07:37 145.730 - 145.750
FO-29 25 Nov 19:09:13 19:14:02 17° 77° (ENE) 19:18:40 435.910
YUBILEINY 25 Nov 19:13:43 19:18:27 16° 294° (WNW) 19:23:12 435.215
CUBESAT XI-V 25 Nov 19:15:39 19:17:02 11° 314° (NW) 19:18:26 437.345
AO-73 25 Nov 19:31:08 19:35:22 82° 73° (ENE) 19:39:33 145.935
CUTE-I 25 Nov 19:31:25 19:34:17 14° 276° (W) 19:37:11 437.470
RS-15 25 Nov 19:36:30 19:48:54 86° 132° (SE) 20:01:04 29.354- 29.394
EO-88 25 Nov 19:37:25 19:38:01 10° 53° (NE) 19:38:39 145.990 - 145.960
Oscar 11 25 Nov 19:41:57 19:46:14 75° 73° (ENE) 19:50:34 .
DELFI C3 25 Nov 19:42:31 19:45:36 22° 60° (ENE) 19:48:41 145.870
CUTE 1.7 + AOD 2 25 Nov 19:45:10 19:48:03 18° 272° (W) 19:50:58 437.475
HO-68 25 Nov 19:46:03 19:52:14 30° 269° (W) 19:58:29 435.675
Max Valier Satellite 25 Nov 19:48:27 19:50:48 17° 58° (ENE) 19:53:11 145.860
nSIGHT-1 25 Nov 19:53:51 19:55:50 15° 147° (SSE) 19:57:50 .
CUBEBUG 2 25 Nov 19:54:38 19:58:12 23° 268° (W) 20:01:42 437.445
AAUSAT CUBESAT 2 25 Nov 19:56:33 20:00:24 37° 264° (W) 20:04:19 437.432
SEEDS 25 Nov 20:06:13 20:09:00 17° 272° (W) 20:11:48 437.485
KKS-1 25 Nov 20:07:56 20:09:44 12° 312° (NW) 20:11:33 437.445
STARS 25 Nov 20:17:23 20:20:20 18° 306° (NW) 20:23:16 437.465
ZACube-1 25 Nov 20:19:54 20:23:45 33° 264° (W) 20:27:35 437.345
STRAND 1 25 Nov 20:26:20 20:31:30 82° 288° (WNW) 20:36:36 437.568
O/OREOS (USA 219) 25 Nov 20:26:21 20:30:07 24° 40° (NE) 20:33:50 437.305
SO-50 25 Nov 20:27:51 20:30:51 18° 115° (ESE) 20:33:53 436.795
XW-2A 25 Nov 20:39:55 20:40:07 10° 273° (W) 20:40:20 145.665 - 145.685
NO-84 25 Nov 20:41:41 20:45:09 25° 219° (SW) 20:48:40 435.350 FM
UWE-3 25 Nov 20:42:42 20:45:04 14° 273° (W) 20:47:24 435.000/436.395/437.385
UNISAT 6 25 Nov 20:49:52 20:50:53 11° 83° (E) 20:51:55 437.425
ISS 25 Nov 20:52:35 20:55:25 27° 156° (SSE) 20:58:15 437.550
FO-29 25 Nov 20:52:53 21:00:43 62° 100° (E) 21:08:05 435.910
TIGRISAT 25 Nov 20:53:01 20:53:50 10° 83° (E) 20:54:40 435.000
EO-88 25 Nov 21:07:22 21:10:58 67° 73° (ENE) 21:14:36 145.990 - 145.960
AO-73 25 Nov 21:09:48 21:12:10 15° 273° (W) 21:14:33 145.935
DELFI C3 25 Nov 21:16:07 21:20:03 55° 260° (W) 21:24:00 145.870
LO-87 25 Nov 21:17:22 21:19:44 17° 59° (ENE) 21:22:07 145.935 - 145.965
Oscar 11 25 Nov 21:20:05 21:22:54 17° 272° (W) 21:25:43 .
Max Valier Satellite 25 Nov 21:20:37 21:24:14 65° 259° (WSW) 21:27:53 145.860
nSIGHT-1 25 Nov 21:28:28 21:31:30 39° 166° (SSE) 21:34:32 .
ESTCUBE 1 25 Nov 21:39:19 21:43:05 27° 60° (ENE) 21:46:52 437.505/2401.250
RS-15 25 Nov 21:50:29 22:02:37 57° 343° (NNW) 22:14:23 29.354- 29.394
PRISM 25 Nov 21:53:15 21:55:46 16° 88° (E) 21:58:18 437.425
SPROUT 25 Nov 21:59:08 22:01:16 14° 52° (NE) 22:03:25 437.525
O/OREOS (USA 219) 25 Nov 22:05:29 22:10:03 78° 242° (WSW) 22:14:34 437.305
SO-50 25 Nov 22:06:12 22:10:41 85° 136° (SE) 22:15:16 436.795
STRAND 1 25 Nov 22:06:28 22:10:00 19° 309° (NW) 22:13:31 437.568
UNISAT 6 25 Nov 22:24:09 22:28:26 72° 103° (ESE) 22:32:42 437.425
TIGRISAT 25 Nov 22:27:06 22:31:23 71° 102° (ESE) 22:35:37 435.000
ISS 25 Nov 22:28:20 22:31:32 49° 176° (S) 22:34:43 437.550
FO-29 25 Nov 22:38:10 22:45:30 44° 302° (WNW) 22:52:31 435.910
EO-88 25 Nov 22:43:02 22:45:03 14° 272° (W) 22:47:04 145.990 - 145.960
PCSat 25 Nov 22:43:56 22:47:28 18° 107° (ESE) 22:51:02 145.827
LO-87 25 Nov 22:49:13 22:52:47 61° 259° (WSW) 22:56:21 145.935 - 145.965
AIST 2D 25 Nov 22:57:48 23:00:37 22° 93° (E) 23:03:26 435.315
nSIGHT-1 25 Nov 23:04:20 23:07:27 47° 186° (S) 23:10:33 .
POLYITAN 1 25 Nov 23:04:46 23:06:15 12° 85° (E) 23:07:43 437.675
VELOX 1 25 Nov 23:13:43 23:17:49 37° 64° (ENE) 23:21:57 145.980
ESTCUBE 1 25 Nov 23:15:16 23:19:39 52° 260° (W) 23:24:06 437.505/2401.250
QB50P2 25 Nov 23:27:14 23:30:24 20° 91° (E) 23:33:33 145.880/145.840
PRISM 25 Nov 23:27:24 23:31:35 78° 288° (WNW) 23:35:44 437.425
SPROUT 25 Nov 23:32:11 23:36:27 72° 71° (ENE) 23:40:44 437.525
DX 1 25 Nov 23:44:03 23:47:29 23° 57° (ENE) 23:50:56 434.975-435.025
O/OREOS (USA 219) 25 Nov 23:46:33 23:48:41 13° 262° (W) 23:50:47 437.305
SO-50 25 Nov 23:47:33 23:51:38 32° 338° (NNW) 23:55:47 436.795
UNISAT 6 26 Nov 00:01:40 00:04:44 19° 304° (WNW) 00:07:45 437.425
TIGRISAT 26 Nov 00:04:35 00:07:39 19° 303° (WNW) 00:10:42 435.000
ISS 26 Nov 00:04:39 00:07:43 37° 196° (SSW) 00:10:46 437.550
RS-15 26 Nov 00:05:33 00:17:34 56° 15° (NNE) 00:29:02 29.354- 29.394
DUCHIFAT 1 26 Nov 00:08:12 00:12:02 33° 96° (E) 00:15:48 145.980
UKube-1 26 Nov 00:15:04 00:18:43 27° 60° (ENE) 00:22:24 .
NANOSAT C BR1 26 Nov 00:21:36 00:25:41 50° 100° (E) 00:29:45 145.865
EO-79 26 Nov 00:21:47 00:25:57 55° 101° (ESE) 00:30:04 145.935-145.965
FO-29 26 Nov 00:24:04 00:28:41 17° 325° (NW) 00:33:16 435.910
PCSat 26 Nov 00:24:39 00:30:05 78° 127° (SE) 00:35:32 145.827
AIST 2D 26 Nov 00:30:36 00:33:56 39° 292° (WNW) 00:37:15 435.315
POLYITAN 1 26 Nov 00:38:33 00:42:46 79° 105° (ESE) 00:46:57 437.675
50 SAT 26 Nov 00:40:30 00:43:41 61° 72° (ENE) 00:46:54 437.505
nSIGHT-1 26 Nov 00:40:36 00:43:16 24° 205° (SSW) 00:45:56 .
BUGSAT 1 26 Nov 00:41:07 00:44:12 21° 92° (E) 00:47:14 437.445
AO-91 26 Nov 00:44:01 00:46:21 14° 83° (E) 00:48:34 145.960
VELOX 1 26 Nov 00:50:12 00:54:17 35° 263° (W) 00:58:26 145.980
QB50P2 26 Nov 01:02:24 01:06:34 59° 290° (WNW) 01:10:41 145.880/145.840
PRISM 26 Nov 01:03:57 01:06:12 14° 308° (NW) 01:08:25 437.425
MOZHAYETS 4 26 Nov 01:07:52 01:11:18 21° 56° (ENE) 01:14:44
SPROUT 26 Nov 01:09:57 01:12:50 17° 271° (W) 01:15:42 437.525
Gurwin Techsat 1B 26 Nov 01:11:29 01:15:30 21° 89° (E) 01:19:30 435.225
DX 1 26 Nov 01:18:58 01:23:19 63° 257° (WSW) 01:27:43 434.975-435.025
BEESAT 3 26 Nov 01:24:56 01:27:42 18° 116° (ESE) 01:30:28 437.485
SO-50 26 Nov 01:29:34 01:33:16 24° 2° (N) 01:37:01 436.795
BEESAT 26 Nov 01:29:51 01:33:52 28° 58° (ENE) 01:37:53 436.000
CUBESAT XI-V 26 Nov 01:34:39 01:36:42 13° 49° (NE) 01:38:45 437.345
ISS 26 Nov 01:41:46 01:43:34 14° 215° (SW) 01:45:21 437.550
ITUPSAT 1 26 Nov 01:42:44 01:47:00 33° 61° (ENE) 01:51:17 437.325
DUCHIFAT 1 26 Nov 01:43:54 01:47:43 35° 296° (WNW) 01:51:29 145.980
Oscar 19 26 Nov 01:44:32 01:49:32 46° 99° (E) 01:54:30 437.125/150
UKube-1 26 Nov 01:50:22 01:54:33 48° 260° (W) 01:58:48 .
NANOSAT C BR1 26 Nov 01:57:44 02:01:10 25° 300° (WNW) 02:04:36 145.865
EO-79 26 Nov 01:58:05 02:01:25 23° 301° (WNW) 02:04:44 145.935-145.965
PCSat 26 Nov 02:09:01 02:13:59 35° 331° (NNW) 02:18:59 145.827
50 SAT 26 Nov 02:14:35 02:16:07 13° 271° (W) 02:17:40 437.505
POLYITAN 1 26 Nov 02:15:14 02:18:03 18° 304° (NW) 02:20:52 437.675
BUGSAT 1 26 Nov 02:15:54 02:19:52 53° 291° (WNW) 02:23:46 437.445
AO-91 26 Nov 02:19:01 02:23:42 89° 106° (ESE) 02:27:49 145.960
RS-15 26 Nov 02:19:09 02:31:18 88° 225° (SW) 02:42:45 29.354- 29.394
KKS-1 26 Nov 02:25:22 02:26:28 11° 46° (NE) 02:27:33 437.445
QB50P2 26 Nov 02:40:09 02:41:31 11° 310° (NW) 02:42:52 145.880/145.840
MOZHAYETS 4 26 Nov 02:43:28 02:48:02 72° 257° (WSW) 02:52:36
BEESAT 2 26 Nov 02:47:47 02:51:23 32° 123° (ESE) 02:55:02 435.950
M-CUBED/EXP-1 PRIME 26 Nov 02:50:37 02:54:28 26° 99° (E) 02:58:21 437.505
Gurwin Techsat 1B 26 Nov 02:50:43 02:56:04 79° 289° (WNW) 03:01:24 435.225
BEESAT 3 26 Nov 03:00:44 03:04:45 84° 316° (NW) 03:08:47 437.485
AO-7 26 Nov 03:04:22 03:11:43 33° 93° (E) 03:19:02 .
BEESAT 26 Nov 03:06:41 03:11:23 57° 258° (WSW) 03:16:06 436.000
CUBESAT XI-V 26 Nov 03:08:39 03:13:10 59° 69° (ENE) 03:17:46 437.345
SO-50 26 Nov 03:10:33 03:14:50 37° 26° (NNE) 03:19:10 436.795
ITUPSAT 1 26 Nov 03:20:09 03:24:44 45° 261° (W) 03:29:21 437.325
AO-85 26 Nov 03:23:07 03:26:29 27° 120° (ESE) 03:30:00 145.980
Oscar 19 26 Nov 03:24:05 03:28:47 36° 299° (WNW) 03:33:28 437.125/150
ITAMSAT 1 26 Nov 03:48:17 03:53:12 40° 97° (E) 03:58:05 435.822/435.867
PCSat 26 Nov 03:54:39 03:58:53 22° 356° (N) 04:03:07 145.827
AO-91 26 Nov 03:56:24 03:59:26 17° 308° (NW) 04:02:17 145.960
KKS-1 26 Nov 03:57:43 04:02:02 49° 67° (ENE) 04:06:23 437.445
DOVE 4 26 Nov 03:58:44 04:01:25 14° 82° (E) 04:04:01 437.250
STARS 26 Nov 04:07:31 04:11:22 30° 61° (ENE) 04:15:13 437.465
MOZHAYETS 4 26 Nov 04:24:25 04:26:02 12° 277° (W) 04:27:41
M-CUBED/EXP-1 PRIME 26 Nov 04:24:36 04:29:05 58° 298° (WNW) 04:33:40 437.505
BEESAT 2 26 Nov 04:25:01 04:28:59 52° 324° (NW) 04:33:00 435.950
YUBILEINY 26 Nov 04:28:22 04:36:15 39° 83° (E) 04:44:12 435.215
Gurwin Techsat 1B 26 Nov 04:31:37 04:35:18 19° 310° (NW) 04:38:57 435.225
RS-15 26 Nov 04:32:14 04:42:21 35° 253° (WSW) 04:52:03 29.354- 29.394
STRAND 1 26 Nov 04:34:35 04:37:02 14° 45° (NE) 04:39:30 437.568
BEESAT 3 26 Nov 04:39:22 04:42:48 26° 338° (NNW) 04:46:14 437.485
CUBESAT XI-V 26 Nov 04:47:13 04:50:55 23° 269° (W) 04:54:40 437.345
SO-50 26 Nov 04:51:01 04:55:38 69° 228° (SW) 05:00:17 436.795
AO-7 26 Nov 04:56:57 05:05:20 80° 296° (WNW) 05:13:41 .
AO-85 26 Nov 05:02:39 05:06:36 58° 323° (NW) 05:10:50 145.980
XW-2C 26 Nov 05:20:53 05:22:41 13° 87° (E) 05:24:29 145.795 - 145.815
XW-2F 26 Nov 05:26:24 05:28:23 14° 87° (E) 05:30:21 145.980 - 146.000
ITAMSAT 1 26 Nov 05:27:49 05:32:44 42° 298° (WNW) 05:37:35 435.822/435.867
LilacSat-2 26 Nov 05:29:01 05:31:32 16° 89° (E) 05:34:02 437.200
FO-29 26 Nov 05:29:21 05:34:36 21° 41° (NE) 05:40:03 435.910
DOVE 4 26 Nov 05:34:50 05:40:04 74° 103° (ESE) 05:45:00 437.250
KKS-1 26 Nov 05:34:59 05:38:49 27° 266° (W) 05:42:40 437.445
PCSat 26 Nov 05:39:13 05:43:56 29° 22° (NNE) 05:48:38 145.827
STARS 26 Nov 05:43:18 05:47:33 45° 261° (W) 05:51:50 437.465
KAITUO 1B 26 Nov 05:44:36 05:47:04 16° 89° (E) 05:49:31 145.475/437.950
CUTE-I 26 Nov 05:58:02 06:02:38 28° 92° (E) 06:07:09 437.470
M-CUBED/EXP-1 PRIME 26 Nov 06:00:13 06:02:41 15° 317° (NW) 06:05:11 437.505
BEESAT 2 26 Nov 06:04:16 06:07:30 22° 346° (NNW) 06:10:45 435.950
STRAND 1 26 Nov 06:10:12 06:15:13 53° 66° (ENE) 06:20:13 437.568
XW-2D 26 Nov 06:12:39 06:16:16 39° 98° (E) 06:19:53 145.860 - 145.880
BEESAT 3 26 Nov 06:18:33 06:21:28 19° 2° (N) 06:24:23 437.485
NUDT-PHONESAT 26 Nov 06:19:12 06:22:35 32° 96° (E) 06:25:58 437.300
YUBILEINY 26 Nov 06:23:55 06:32:39 66° 287° (WNW) 06:41:30 435.215
XW-2B 26 Nov 06:27:37 06:31:22 54° 100° (E) 06:35:08 145.730 - 145.750
SO-50 26 Nov 06:32:49 06:35:21 15° 248° (WSW) 06:37:53 436.795
AO-85 26 Nov 06:44:22 06:47:48 24° 347° (NNW) 06:51:27 145.980
UWE-3 26 Nov 06:48:23 06:49:16 11° 84° (E) 06:50:10 435.000/436.395/437.385
AO-7 26 Nov 06:50:13 06:57:07 30° 319° (NW) 07:04:01 .
XW-2C 26 Nov 06:53:34 06:57:24 82° 286° (WNW) 07:01:14 145.795 - 145.815
XW-2F 26 Nov 06:59:11 07:02:59 77° 287° (WNW) 07:06:48 145.980 - 146.000
LilacSat-2 26 Nov 07:02:22 07:06:12 63° 288° (WNW) 07:10:01 437.200
HO-68 26 Nov 07:04:20 07:11:08 43° 97° (E) 07:17:53 435.675
ITAMSAT 1 26 Nov 07:09:25 07:10:57 11° 319° (NW) 07:12:29 435.822/435.867
FO-29 26 Nov 07:11:07 07:18:09 59° 64° (ENE) 07:25:47 435.910
DOVE 4 26 Nov 07:13:07 07:17:15 24° 304° (NW) 07:21:13 437.250
KAITUO 1B 26 Nov 07:17:41 07:21:25 62° 289° (WNW) 07:25:10 145.475/437.950
CUTE 1.7 + AOD 2 26 Nov 07:20:58 07:25:11 53° 100° (E) 07:29:23 437.475
PCSat 26 Nov 07:22:44 07:28:11 73° 46° (NE) 07:33:37 145.827
AAUSAT CUBESAT 2 26 Nov 07:31:27 07:34:48 23° 91° (E) 07:38:09 437.432
CUBEBUG 2 26 Nov 07:37:02 07:41:04 46° 99° (E) 07:45:03 437.445
CUTE-I 26 Nov 07:37:45 07:43:04 61° 292° (WNW) 07:48:20 437.470
SEEDS 26 Nov 07:40:49 07:45:01 53° 100° (E) 07:49:11 437.485
BEESAT 2 26 Nov 07:43:19 07:46:27 21° 10° (N) 07:49:34 435.950
XW-2D 26 Nov 07:47:06 07:50:18 26° 297° (WNW) 07:53:31 145.860 - 145.880
STRAND 1 26 Nov 07:50:09 07:54:39 30° 266° (W) 07:59:12 437.568
XW-2A 26 Nov 07:50:49 07:53:54 31° 97° (E) 07:56:58 145.665 - 145.685
NUDT-PHONESAT 26 Nov 07:53:07 07:56:23 29° 295° (WNW) 07:59:40 437.300
UNISAT 6 26 Nov 07:53:48 07:57:23 24° 60° (ENE) 08:00:55 437.425
BEESAT 3 26 Nov 07:56:31 08:00:05 30° 25° (NNE) 08:03:36 437.485
TIGRISAT 26 Nov 07:56:40 08:00:12 24° 59° (ENE) 08:03:42 435.000
ZACube-1 26 Nov 08:00:34 08:04:10 28° 94° (E) 08:07:47 437.345
XW-2B 26 Nov 08:02:23 08:05:15 20° 300° (WNW) 08:08:07 145.730 - 145.750
